Zurück zum Katalog

STARLINK-31662

AktivKommunikationVLEO
NORAD 59584·PAYLOAD·🇺🇸 United States

Gestartet Apr 23, 2024 von Cape Canaveral Space Force Station

Loading…

Nächste Überflüge (nächste 24 Stunden)

TLE

AktuellSource: CelesTrak SupGP

Epoche: Sep 15, 2026, 02:07 UTC

1 59584C 24076W   26258.08868056 -.00005206  00000+0 -18851-3 0  2582
2 59584  43.0042  19.4856 0001563 265.4513 231.5634 15.27587000    10

Verfolge STARLINK-31662 in Echtzeit mit AllMySat

Download on the App Store